Regional Weather Roundup
Issued by NWS Charleston, WV

Home | Current Version | Previous Version | Graphics & Text | Print | Product List | Glossary On
Versions: 1 2 3 4 5 6 7 8 9 10 11 12 13 14 15 16 17 18 19 20 21 22 23 24 25 26 27 28 29 30 31 32 33 34 35 36 37 38 39 40 41 42 43 44 45 46 47 48 49 50
000
ASUS41 KRLX 111610
RWRRLX
West Virginia Regional Weather Roundup
National Weather Service Charleston WV
1200 PM EDT FRI JUL 11 2014

Note: "fair" indicates few or no clouds below 12,000 feet with no
significant weather and/or obstructions to visibility.

WVZ003-111700-
Northern Panhandle of West Virginia

CITY           SKY/WX    TMP DP  RH WIND       PRES   REMARKS
WHEELING       SUNNY     79  61  53 VRB3      30.23S
$$

WVZ009-111700-
Northwest West Virginia

CITY           SKY/WX    TMP DP  RH WIND       PRES   REMARKS
PARKERSBURG    SUNNY     80  57  45 CALM      30.24F
$$

WVZ006-111700-
Western West Virginia

CITY           SKY/WX    TMP DP  RH WIND       PRES   REMARKS
HUNTINGTON     SUNNY     82  61  48 E6        30.21F
$$

WVZ015-111700-
West Central West Virginia

CITY           SKY/WX    TMP DP  RH WIND       PRES   REMARKS
CHARLESTON     MOSUNNY   81  62  52 CALM      30.22S
$$

WVZ031-111700-
North Central West Virginia

CITY           SKY/WX    TMP DP  RH WIND       PRES   REMARKS
CLARKSBURG     SUNNY     79  60  52 CALM      30.23S
MORGANTOWN     MOSUNNY   81  60  48 N7        30.24S
$$

WVZ035-042-045-111700-
South Central West Virginia

CITY           SKY/WX    TMP DP  RH WIND       PRES   REMARKS
BECKLEY        SUNNY     79  54  41 N8        30.28F
BLUEFIELD      MOSUNNY   79  55  43 CALM      30.31R
LEWISBURG      SUNNY     81  57  44 NE3       30.27F
$$

WVZ047-111700-
Northern Mountains of West Virginia

CITY           SKY/WX    TMP DP  RH WIND       PRES   REMARKS
ELKINS         SUNNY     79  57  46 VRB6      30.27S
$$

WVZ052-111700-
Eastern Panhandle of West Virginia

CITY           SKY/WX    TMP DP  RH WIND       PRES   REMARKS
MARTINSBURG    SUNNY     80  59  48 CALM      30.23S
PETERSBURG     CLOUDY    67  58  73 CALM      30.27F
$$



USA.gov is the U.S. government's official web portal to all federal, state and local government web resources and services.